• In Germany
  • List of Countries
  • For 7 days
  • Water Temperature
  • Satellite Maps
  • Weather Map
  • Weather Widgets
  • user-avatar
    Login

    Hourly Weather Naftalan

    Today, 23 April, Sunday

    Time Temperature Precipitation Wind Pressure Humidity
    00:00 +10°C° 0 mm 3 mps 770 mmHg 76%
    01:00 +10°C° 0 mm 3 mps 769 mmHg 78%
    02:00 +9°C° 0 mm 3 mps 769 mmHg 81%
    03:00 +9°C° 0 mm 3 mps 769 mmHg 83%
    04:00 +10°C° 0 mm 3 mps 769 mmHg 83%
    05:00 +10°C° 0 mm 3 mps 769 mmHg 83%
    06:00 +11°C° 0 mm 3 mps 769 mmHg 82%
    07:00 +12°C° 0 mm 3 mps 768 mmHg 75%
    08:00 +14°C° 0 mm 3 mps 767 mmHg 68%
    09:00 +17°C° 0 mm 3 mps 767 mmHg 60%
    10:00 +18°C° 0 mm 3 mps 766 mmHg 58%
    11:00 +20°C° 0 mm 4 mps 765 mmHg 55%
    12:00 +21°C° 0 mm 4 mps 764 mmHg 52%
    13:00 +21°C° 0 mm 4 mps 763 mmHg 53%
    14:00 +21°C° 0 mm 4 mps 761 mmHg 53%
    15:00 +20°C° 0 mm 5 mps 760 mmHg 54%
    16:00 +19°C° 0 mm 4 mps 760 mmHg 60%
    17:00 +18°C° 0 mm 4 mps 759 mmHg 66%
    18:00 +16°C° 0 mm 3 mps 758 mmHg 72%
    19:00 +14°C° 0 mm 3 mps 758 mmHg 76%
    20:00 +13°C° 0 mm 3 mps 757 mmHg 79%
    21:00 +13°C° 0 mm 3 mps 757 mmHg 83%
    22:00 +13°C° 0 mm 3 mps 756 mmHg 84%
    23:00 +14°C° 0 mm 2 mps 755 mmHg 85%

    Tomorrow, 24 April, Monday

    Time Temperature Precipitation Wind Pressure Humidity
    00:00 +14°C° 0 mm 2 mps 755 mmHg 87%
    01:00 +13°C° 0 mm 3 mps 755 mmHg 87%
    02:00 +13°C° 0 mm 4 mps 754 mmHg 87%
    03:00 +13°C° 0 mm 6 mps 754 mmHg 87%
    04:00 +12°C° 0 mm 7 mps 755 mmHg 81%
    05:00 +13°C° 0 mm 8 mps 755 mmHg 76%
    06:00 +15°C° 0 mm 9 mps 756 mmHg 70%
    07:00 +16°C° 0 mm 8 mps 757 mmHg 62%
    08:00 +18°C° 0 mm 8 mps 757 mmHg 55%
    09:00 +20°C° 0 mm 7 mps 758 mmHg 47%
    10:00 +22°C° 0 mm 7 mps 758 mmHg 43%
    11:00 +23°C° 0 mm 7 mps 759 mmHg 40%
    12:00 +24°C° 0 mm 7 mps 759 mmHg 36%
    13:00 +24°C° 0.1 mm 8 mps 760 mmHg 38%
    14:00 +23°C° 0.1 mm 8 mps 760 mmHg 40%
    15:00 +22°C° 0.1 mm 9 mps 760 mmHg 42%
    16:00 +20°C° 0 mm 8 mps 761 mmHg 45%
    17:00 +17°C° 0 mm 7 mps 762 mmHg 48%
    18:00 +15°C° 0 mm 6 mps 762 mmHg 51%
    19:00 +14°C° 0 mm 5 mps 763 mmHg 52%
    20:00 +13°C° 0 mm 4 mps 764 mmHg 54%
    21:00 +12°C° 0 mm 4 mps 765 mmHg 56%
    22:00 +12°C° 0 mm 4 mps 765 mmHg 55%
    23:00 +12°C° 0 mm 3 mps 765 mmHg 55%

    Day after tomorrow, 25 April, Tuesday

    Time Temperature Precipitation Wind Pressure Humidity
    00:00 +11°C° 0 mm 3 mps 766 mmHg 55%
    01:00 +11°C° 0 mm 3 mps 766 mmHg 56%
    02:00 +11°C° 0 mm 3 mps 766 mmHg 57%
    03:00 +10°C° 0 mm 2 mps 766 mmHg 58%
    04:00 +12°C° 0 mm 2 mps 766 mmHg 59%
    05:00 +12°C° 0 mm 2 mps 767 mmHg 60%
    06:00 +13°C° 0 mm 2 mps 767 mmHg 60%
    07:00 +15°C° 0 mm 2 mps 768 mmHg 55%
    08:00 +17°C° 0 mm 2 mps 768 mmHg 49%
    09:00 +19°C° 0 mm 3 mps 768 mmHg 44%
    10:00 +19°C° 0 mm 4 mps 768 mmHg 43%
    11:00 +20°C° 0 mm 4 mps 768 mmHg 43%
    12:00 +21°C° 0 mm 5 mps 768 mmHg 42%
    13:00 +20°C° 0 mm 6 mps 768 mmHg 45%
    14:00 +20°C° 0 mm 8 mps 768 mmHg 47%
    15:00 +18°C° 0 mm 9 mps 768 mmHg 50%
    16:00 +17°C° 0 mm 9 mps 769 mmHg 55%
    17:00 +14°C° 0 mm 10 mps 769 mmHg 59%
    18:00 +12°C° 0 mm 10 mps 770 mmHg 64%
    19:00 +11°C° 0 mm 9 mps 771 mmHg 64%
    20:00 +11°C° 0 mm 9 mps 772 mmHg 65%
    21:00 +10°C° 0 mm 8 mps 773 mmHg 65%
    22:00 +10°C° 0 mm 7 mps 773 mmHg 63%
    23:00 +10°C° 0 mm 7 mps 773 mmHg 60%

    26 April, Wednesday

    Time Temperature Precipitation Wind Pressure Humidity
    00:00 +10°C° 0 mm 6 mps 774 mmHg 58%
    01:00 +10°C° 0 mm 6 mps 774 mmHg 59%
    02:00 +10°C° 0 mm 5 mps 774 mmHg 60%
    03:00 +10°C° 0 mm 5 mps 774 mmHg 61%
    04:00 +9°C° 0 mm 5 mps 775 mmHg 62%
    05:00 +9°C° 0 mm 5 mps 776 mmHg 62%
    06:00 +10°C° 0 mm 4 mps 776 mmHg 63%
    07:00 +10°C° 0 mm 5 mps 776 mmHg 58%
    08:00 +12°C° 0 mm 5 mps 777 mmHg 53%
    09:00 +13°C° 0 mm 5 mps 777 mmHg 48%
    10:00 +14°C° 0 mm 5 mps 777 mmHg 46%
    11:00 +15°C° 0 mm 5 mps 776 mmHg 45%
    12:00 +15°C° 0 mm 5 mps 776 mmHg 43%
    13:00 +16°C° 0 mm 5 mps 776 mmHg 44%
    14:00 +16°C° 0 mm 5 mps 775 mmHg 45%
    15:00 +16°C° 0 mm 5 mps 775 mmHg 45%
    16:00 +15°C° 0 mm 5 mps 775 mmHg 50%
    17:00 +14°C° 0 mm 4 mps 775 mmHg 55%
    18:00 +13°C° 0 mm 4 mps 776 mmHg 60%
    19:00 +12°C° 0 mm 3 mps 776 mmHg 65%
    20:00 +11°C° 0 mm 3 mps 776 mmHg 71%
    21:00 +9°C° 0 mm 2 mps 776 mmHg 76%
    22:00 +9°C° 0 mm 2 mps 776 mmHg 78%
    23:00 +8°C° 0 mm 2 mps 776 mmHg 80%

    27 April, Thursday

    Time Temperature Precipitation Wind Pressure Humidity
    00:00 +9°C° 0 mm 1 mps 775 mmHg 82%
    01:00 +8°C° 0 mm 1 mps 775 mmHg 82%
    02:00 +7°C° 0 mm 2 mps 775 mmHg 82%
    03:00 +7°C° 0 mm 2 mps 775 mmHg 82%
    04:00 +8°C° 0 mm 2 mps 775 mmHg 79%
    05:00 +9°C° 0 mm 2 mps 775 mmHg 77%
    06:00 +9°C° 0 mm 2 mps 775 mmHg 74%
    07:00 +12°C° 0 mm 2 mps 775 mmHg 65%
    08:00 +14°C° 0 mm 2 mps 775 mmHg 56%
    09:00 +16°C° 0 mm 2 mps 775 mmHg 47%
    10:00 +17°C° 0 mm 2 mps 775 mmHg 44%
    11:00 +18°C° 0 mm 3 mps 774 mmHg 41%
    12:00 +19°C° 0 mm 3 mps 774 mmHg 37%
    13:00 +19°C° 0 mm 3 mps 773 mmHg 38%
    14:00 +19°C° 0 mm 3 mps 773 mmHg 39%
    15:00 +19°C° 0 mm 4 mps 773 mmHg 39%
    16:00 +18°C° 0 mm 3 mps 773 mmHg 45%
    17:00 +16°C° 0 mm 3 mps 773 mmHg 51%
    18:00 +14°C° 0 mm 3 mps 773 mmHg 57%
    19:00 +13°C° 0 mm 3 mps 773 mmHg 63%
    20:00 +12°C° 0 mm 2 mps 774 mmHg 68%
    21:00 +10°C° 0 mm 2 mps 774 mmHg 74%
    22:00 +11°C° 0 mm 1 mps 774 mmHg 75%
    23:00 +10°C° 0 mm 1 mps 773 mmHg 77%

    28 April, Friday

    Time Temperature Precipitation Wind Pressure Humidity
    00:00 +9°C° 0 mm 1 mps 773 mmHg 79%
    01:00 +9°C° 0 mm 1 mps 773 mmHg 80%
    02:00 +9°C° 0 mm 1 mps 773 mmHg 81%
    03:00 +8°C° 0 mm 1 mps 772 mmHg 83%
    04:00 +10°C° 0 mm 1 mps 772 mmHg 80%
    05:00 +11°C° 0 mm 1 mps 773 mmHg 77%
    06:00 +12°C° 0 mm 1 mps 773 mmHg 74%
    07:00 +14°C° 0 mm 1 mps 773 mmHg 66%
    08:00 +16°C° 0 mm 1 mps 772 mmHg 58%
    09:00 +19°C° 0 mm 1 mps 772 mmHg 50%
    10:00 +19°C° 0 mm 2 mps 772 mmHg 48%
    11:00 +20°C° 0 mm 2 mps 771 mmHg 46%
    12:00 +21°C° 0 mm 3 mps 771 mmHg 44%
    13:00 +21°C° 0 mm 3 mps 770 mmHg 45%
    14:00 +21°C° 0 mm 3 mps 770 mmHg 46%
    15:00 +21°C° 0 mm 4 mps 769 mmHg 47%
    16:00 +19°C° 0 mm 4 mps 769 mmHg 52%
    17:00 +18°C° 0 mm 3 mps 769 mmHg 57%
    18:00 +17°C° 0 mm 3 mps 769 mmHg 62%
    19:00 +14°C° 0 mm 3 mps 769 mmHg 67%
    20:00 +14°C° 0 mm 2 mps 769 mmHg 72%
    21:00 +13°C° 0 mm 2 mps 769 mmHg 77%
    22:00 +12°C° 0 mm 2 mps 769 mmHg 80%
    23:00 +12°C° 0 mm 1 mps 769 mmHg 83%
    Show more